RH
9 10 11 12 14 14 14 14 16 17 16 15 19 20 21 20 22 30 26 43 53 45 41 40 42 42 42 42 47 46 46 66 81 68 91 100 100 100 100 100 100 100 100 100
9 10 12 13 15 16 16 15 17 18 17 19 22 22 22 21 22 29 40 37 50 64 51 51 45 47 45 46 44 43 63 60 82 82 82 85 98 100 100 100 100 100 100 100
10 10 12 14 15 17 16 15 16 18 19 23 26 28 28 27 26 30 40 39 38 52 59 55 50 46 48 47 46 45 40 44 60 79 78 74 92 100 100 100 100 100 100 100
12 11 12 14 16 18 18 17 16 18 21 27 30 31 36 34 33 32 42 44 43 52 57 69 54 50 51 53 65 65 67 64 62 62 76 90 91 100 98 100 100 100 100 100
13 13 13 13 16 18 20 20 18 20 22 29 34 36 34 38 41 40 44 51 48 52 57 59 60 54 50 53 55 64 78 80 85 77 65 65 73 95 100 100 100 100 100 100
13 15 15 14 16 19 20 21 20 21 24 27 33 37 39 41 42 41 44 50 51 52 56 64 60 58 63 61 59 61 57 59 68 62 60 62 82 98 100 100 100 100 100 100
12 13 15 17 17 18 21 22 22 21 23 26 29 31 35 37 45 47 48 52 62 62 62 70 74 77 76 73 74 73 72 66 78 67 67 67 77 76 92 100 88 92 100 100
12 12 14 16 17 18 20 22 22 22 23 24 26 28 30 30 33 35 36 41 44 46 56 64 62 64 66 79 83 75 71 71 77 76 72 90 84 81 80 82 89 89 91 100
14 14 14 14 16 17 18 20 23 24 22 22 24 25 25 26 27 28 30 33 38 40 48 60 55 50 49 49 55 62 66 60 67 75 71 67 72 82 87 89 93 100 97 100
14 14 15 16 15 15 18 18 19 22 24 23 23 23 24 24 23 24 26 27 28 29 31 36 38 38 40 43 40 47 54 67 66 67 64 63 62 61 60 60 63 66 73 84
21 20 17 15 14 16 14 16 20 19 20 22 22 22 22 23 23 22 23 24 26 27 28 30 32 38 42 44 46 48 52 54 65 74 73 71 68 64 62 60 57 55 51 52
10 14 17 21 22 16 15 15 13 15 20 20 20 22 20 20 21 22 21 21 22 24 26 30 30 31 36 42 44 46 51 58 58 64 71 69 70 73 69 68 64 60 58 56
14 14 16 15 19 19 19 19 15 14 13 12 17 19 20 20 19 19 20 21 20 20 20 23 27 27 28 32 37 39 42 46 56 64 61 62 64 66 70 70 72 75 69 66
19 18 15 19 17 18 17 14 15 18 16 13 12 12 12 18 20 20 20 19 18 18 18 19 20 22 27 28 29 30 30 33 41 46 51 57 60 64 62 63 61 62 66 64
9 11 15 16 18 18 16 14 12 12 12 15 14 12 14 12 11 14 18 19 18 18 18 19 18 18 21 23 24 26 29 28 30 32 35 39 45 51 55 57 52 53 58 63
11 11 10 10 10 14 16 16 14 12 12 11 11 11 10 10 11 12 12 14 14 16 18 19 18 17 19 20 21 21 21 22 26 26 25 28 29 30 32 34 36 40 44 43
16 18 18 13 11 10 9 10 11 12 12 11 11 11 10 9 9 9 9 11 13 12 11 13 15 15 18 20 21 20 20 19 19 21 22 23 26 26 28 29 29 30 31 27
9 10 11 13 13 12 11 11 10 10 10 10 10 9 9 8 8 8 8 8 8 8 10 12 10 11 13 13 14 15 16 17 18 19 19 20 21 23 23 24 23 22 21 21
10 10 11 12 13 12 12 11 10 9 8 8 8 7 7 7 6 6 6 6 7 7 8 8 8 9 10 9 10 12 13 15 16 16 16 15 17 19 19 19 20 19 18 19
11 11 11 11 12 12 10 9 9 9 8 7 6 6 6 5 5 5 5 6 6 6 6 6 6 6 7 9 10 10 10 9 9 10 11 12 11 12 14 14 14 16 16 16
10 10 10 9 9 10 10 10 9 8 8 7 6 6 5 5 5 5 5 6 5 5 5 6 6 7 7 7 8 8 8 8 8 8 8 9 9 10 11 13 15 15 15 16
8 8 8 7 7 7 8 8 8 8 8 7 7 6 5 5 4 4 5 5 5 5 5 4 5 5 5 5 6 7 7 6 6 7 7 8 9 9 8 8 8 9 10 11
8 7 7 8 9 8 8 8 8 8 8 8 7 7 6 5 5 5 5 5 5 5 5 5 5 5 4 5 5 5 5 6 6 6 7 7 7 7 6 6 6 7 8 8
8 8 8 9 9 9 7 6 6 7 8 8 8 8 7 7 6 6 5 5 5 5 5 5 5 5 5 5 5 5 5 5 5 5 5 5 5 5 5 6 6 6 6 6
9 10 11 10 10 8 7 8 7 7 7 7 7 8 8 8 7 7 7 6 6 5 5 5 5 5 5 5 5 5 5 5 5 5 5 5 5 5 5 5 6 6 6 6
13 11 10 10 10 8 8 8 8 8 7 7 7 6 6 6 6 7 7 7 6 7 6 6 6 5 5 5 5 5 5 5 5 5 5 5 6 6 5 6 6 6 6 7
19 16 11 10 10 10 10 9 8 7 7 7 7 7 7 7 6 6 6 6 6 6 7 7 6 6 6 7 7 7 7 6 6 6 6 6 6 6 7 7 7 7 7 8
Wind_Speed
33 32 31 29 29 28 29 27 29 32 34 33 38 40 44 45 46 51 51 55 55 60 65 71 77 80 84 89 96 100 103 107 114 112 116 116 115 118 116 111 113 114 110 113
30 28 27 26 26 28 27 27 27 30 31 32 36 40 43 45 46 50 54 55 60 61 63 67 74 78 83 88 92 93 98 102 106 108 106 108 111 110 111 112 111 113 114 119
27 25 24 24 25 26 27 27 26 28 30 32 36 40 43 45 46 49 55 58 58 64 65 68 71 76 80 84 87 91 95 98 102 106 108 108 108 109 112 109 114 114 118 116
25 23 22 23 24 24 25 26 25 28 29 32 35 40 45 47 48 49 52 56 57 60 64 69 69 71 77 82 83 87 89 90 94 97 101 101 103 106 107 111 117 118 122 123
24 24 21 21 22 23 24 25 26 27 30 32 36 39 43 48 50 51 53 56 57 59 64 67 69 71 71 75 82 86 88 91 94 94 94 96 98 100 105 109 114 119 120 118
21 21 22 21 20 22 24 27 27 28 31 33 36 40 41 43 47 50 52 54 57 59 62 67 68 67 69 72 75 78 85 88 93 95 95 97 99 101 106 110 111 116 117 119
24 21 19 20 21 20 23 26 28 29 31 34 37 40 42 44 46 48 50 53 56 59 62 64 66 69 71 72 74 77 80 82 87 90 93 96 102 103 107 112 109 115 118 116
24 21 20 20 21 21 22 25 29 32 32 34 37 41 45 47 48 49 50 53 55 57 61 63 64 66 68 71 74 76 79 80 82 85 86 92 97 102 106 108 111 111 114 117
22 21 20 19 21 22 22 24 27 32 35 36 37 39 43 46 49 51 52 53 56 58 60 63 65 65 68 70 72 75 77 79 80 82 83 86 92 96 100 104 109 112 115 117
27 22 19 19 20 21 23 25 27 30 34 37 39 40 42 44 46 49 50 52 53 55 59 63 65 65 66 67 69 71 76 77 78 79 80 83 86 89 92 96 99 103 109 112
21 26 23 20 16 21 23 24 27 29 32 35 39 42 44 45 46 47 49 51 52 54 56 59 62 64 67 68 69 68 70 75 77 79 80 80 81 84 88 92 95 98 102 106
30 22 20 19 21 22 18 24 26 28 30 32 36 40 44 45 47 49 49 50 51 54 56 58 61 62 64 66 69 69 71 73 74 77 78 79 80 82 85 87 89 91 95 98
33 31 28 23 20 20 20 23 24 25 28 32 34 36 40 43 47 49 51 52 53 54 54 56 60 62 63 66 69 71 71 72 76 78 78 78 80 82 85 88 89 92 94 96
30 31 28 26 26 24 24 21 20 25 28 28 30 35 37 39 42 46 49 52 54 55 55 56 58 59 61 65 68 70 71 72 75 77 78 80 79 80 83 87 89 91 94 97
38 32 28 25 24 25 26 25 23 20 21 25 30 29 33 36 37 40 45 49 52 54 55 58 60 60 61 63 65 67 70 71 72 74 77 77 79 82 83 85 87 87 90 95
43 39 35 30 25 22 23 25 27 24 22 21 22 26 29 31 32 34 38 44 47 49 53 56 58 59 60 63 66 67 68 68 70 71 71 73 75 77 79 80 83 85 87 91
45 45 47 44 38 34 27 21 20 22 24 24 22 22 23 25 28 31 33 36 40 43 44 48 53 54 57 61 65 67 68 68 68 69 70 70 73 73 74 75 77 78 81 81
49 46 43 41 40 38 34 31 27 22 20 20 21 23 23 23 23 25 27 30 34 36 38 43 46 45 51 55 56 59 63 65 66 67 70 70 71 73 74 75 76 77 77 77
53 51 48 45 42 37 33 31 30 29 25 21 18 17 18 20 22 23 24 23 27 29 33 39 41 42 45 46 47 50 54 57 60 63 66 68 69 71 73 74 75 76 76 76
56 52 49 45 41 38 34 29 25 24 25 24 21 17 17 18 19 20 20 20 22 23 29 32 34 35 37 41 43 47 48 50 53 56 58 61 61 61 64 66 68 70 72 74
55 51 48 44 38 34 32 30 28 26 24 23 22 20 17 16 15 16 17 19 21 22 21 23 27 30 32 36 39 43 43 45 46 47 48 51 54 55 57 59 62 64 65 67
58 55 51 50 49 44 39 36 33 30 28 25 24 22 19 17 16 13 12 16 18 17 20 23 23 24 30 27 30 33 36 37 39 40 42 45 48 51 53 53 55 57 59 59
61 58 59 59 55 51 45 38 35 34 33 31 27 25 23 20 17 15 12 13 13 15 17 17 19 22 22 24 25 26 28 30 31 33 36 40 43 45 47 47 47 48 50 52
69 68 66 61 59 54 48 46 43 40 37 34 31 28 26 24 21 18 14 12 11 11 11 13 15 17 19 20 21 22 23 24 25 29 33 36 37 39 40 41 42 42 43 45
78 75 69 65 61 57 54 51 48 44 41 38 35 32 29 25 23 20 17 15 13 12 9 7 7 9 11 14 16 17 18 18 20 23 25 26 28 30 32 33 35 36 37 38
83 77 71 66 62 60 59 54 50 46 44 42 38 36 35 31 27 24 21 19 16 13 12 11 10 8 7 8 10 12 13 14 15 15 16 17 20 23 24 25 27 28 29 30
87 83 78 74 67 63 59 56 54 51 47 43 41 38 36 34 32 30 27 24 21 18 16 13 11 10 9 8 7 9 10 11 11 11 11 13 15 17 18 19 21 22 24 25
Wind_Direction
297 289 281 274 265 258 255 250 244 240 240 234 229 224 218 218 214 218 216 212 217 218 217 215 215 216 217 219 221 223 223 224 224 227 226 229 230 233 233 231 229 228 230 232
300 291 280 270 258 255 251 249 240 237 236 231 223 222 221 219 213 212 216 217 212 215 217 216 216 216 217 219 220 221 223 226 226 227 228 229 230 232 230 230 228 229 229 227
300 292 279 266 257 250 247 246 237 233 231 226 220 218 220 219 215 213 215 217 216 215 216 219 218 218 219 220 222 223 224 224 225 227 230 230 230 229 229 229 227 228 227 228
298 290 279 265 258 251 245 241 238 232 227 224 222 217 217 220 217 213 214 216 216 217 218 220 222 220 220 221 223 224 226 226 227 227 228 229 228 230 228 229 230 228 227 228
303 296 286 273 260 252 246 240 237 232 227 221 220 221 219 218 218 216 216 218 219 217 219 221 223 225 225 225 225 226 227 227 228 230 231 229 228 227 227 229 230 230 230 231
307 295 289 280 267 257 249 244 238 231 228 222 219 222 223 223 221 219 218 218 220 220 220 221 224 225 226 227 228 228 230 229 230 231 232 230 229 228 226 227 229 230 231 232
316 307 291 280 271 259 249 244 241 235 228 224 221 221 224 226 225 223 221 220 222 221 220 222 224 226 227 227 228 229 231 230 232 233 233 233 231 231 229 231 230 232 231 233
321 312 299 287 278 267 255 247 242 240 236 230 225 221 222 225 229 230 227 224 225 226 224 225 226 228 227 228 229 230 229 231 230 234 232 234 235 233 234 234 234 235 234 235
327 319 308 297 284 275 264 254 246 241 239 237 234 231 227 225 227 229 231 231 228 228 228 229 230 229 228 228 230 230 232 231 231 233 234 233 234 234 235 236 237 237 238 237
331 328 317 303 295 284 276 266 255 248 244 241 240 237 235 234 232 231 232 233 232 231 227 229 231 233 234 234 231 230 231 232 234 233 234 235 235 236 237 237 236 236 236 236
334 328 327 317 299 286 281 273 269 261 252 247 243 243 242 238 238 237 235 236 236 233 232 230 230 231 235 237 236 236 235 234 233 235 236 237 237 238 237 237 238 239 239 238
348 343 329 320 309 301 287 278 274 265 263 258 251 245 246 244 242 241 240 239 239 237 236 235 236 234 234 237 239 239 236 237 236 237 238 238 238 238 238 238 239 238 239 240
345 344 340 334 324 309 298 289 282 273 267 263 257 252 250 247 244 245 244 242 241 240 239 238 238 238 236 236 237 238 239 239 238 239 240 241 241 240 239 239 239 240 240 240
353 346 342 333 329 322 314 303 288 281 279 270 263 263 258 249 247 246 245 245 245 243 241 240 240 240 240 240 239 240 241 239 240 241 241 242 243 243 242 241 241 241 243 243
1 359 353 343 336 326 321 315 312 301 284 276 277 269 262 262 257 250 247 244 245 244 244 243 243 241 240 242 242 242 242 242 242 241 241 241 242 243 244 245 245 245 244 245
360 358 357 355 353 343 330 323 319 315 307 294 277 270 269 266 261 257 252 251 249 245 243 243 244 243 242 241 242 243 243 243 243 244 243 243 244 244 244 245 245 246 246 246
3 360 356 356 357 356 351 344 329 318 312 307 299 289 280 269 264 262 258 252 252 253 250 247 246 244 242 242 242 242 244 244 243 244 245 245 247 246 247 247 248 248 249 248
8 7 4 0 356 352 350 347 343 336 325 317 309 302 293 283 273 264 258 256 255 253 250 250 250 246 244 244 244 243 243 244 245 244 244 244 244 245 247 247 248 249 250 250
9 7 4 0 358 356 351 347 342 339 336 332 323 309 295 287 281 276 269 258 252 251 251 251 249 247 248 247 245 246 246 246 246 246 247 246 245 245 246 247 248 249 250 250
11 9 5 3 360 358 357 356 351 345 339 338 336 326 312 298 287 281 280 276 267 258 251 253 253 251 249 249 249 247 245 243 243 243 244 247 248 248 249 250 250 250 251 252
14 14 13 10 8 7 6 4 2 359 354 351 346 342 335 323 308 294 287 276 272 268 269 262 253 249 247 243 243 245 246 247 248 247 247 249 251 251 250 249 251 252 252 253
16 17 18 19 17 15 13 12 11 9 7 5 2 357 351 347 341 336 311 289 289 281 264 258 258 255 252 251 250 249 249 247 245 245 244 244 245 245 246 246 246 247 249 250
19 20 22 21 19 17 15 15 15 15 13 11 11 8 5 2 359 359 344 322 308 293 289 279 268 264 266 261 258 255 252 251 249 247 245 243 242 244 244 245 245 244 246 248
20 22 23 21 20 17 17 20 21 20 18 16 14 14 11 9 7 6 4 354 341 329 316 301 292 286 280 275 271 267 264 262 257 251 249 249 248 248 249 249 249 249 248 249
23 22 21 22 21 19 20 21 21 21 21 21 21 20 19 16 13 11 10 6 358 352 349 335 313 294 289 287 283 280 277 272 266 262 262 261 258 257 255 253 253 254 254 253
24 23 22 22 22 23 22 20 21 21 23 23 21 21 22 23 22 20 18 16 15 11 4 355 347 334 312 292 284 280 277 274 269 264 260 257 254 253 253 254 255 256 258 259
24 22 22 22 22 23 23 22 21 22 24 22 23 24 24 22 20 21 22 22 20 19 17 12 4 354 345 334 314 299 292 289 286 279 269 262 258 255 253 250 249 248 250 252